Location: Unspecified
(0.0000°N, 0.0000°E)
Time: 09:14:23
(UTC+00:00)

RS-6 - Pass Details

Date: 27 September 2022
Orbit: 1636 x 1664 km, 83.0° (Epoch: 04 December)

Event Time Altitude Azimuth Distance (km) Brightness Sun altitude
Rises 04:10:30 0° 170° (S) 4,900 ? -25.1°
Reaches altitude 10° 04:13:40 10° 165° (SSE) 3,908 ? -24.4°
Maximum altitude 04:22:44 49° 92° (E) 2,042 ? -22.1°
Drops below altitude 10° 04:31:40 10° 21° (NNE) 3,876 ? -19.9°
Sets 04:34:46 0° 16° (NNE) 4,858 ? -19.1°
